{"data":{"norad_id":60426,"intl_designator":"2024-144B","name":"STARLINK-32226","alt_names":[],"object_type":"PAYLOAD","status":"ACTIVE","operator":null,"country":"US","launch_date":"2024-08-12","launch_site_code":"AFETR","launch_vehicle":null,"mission":null,"orbit_class":"UNKNOWN","rcs_meters":null,"size_class":null,"mass_kg":null,"dimensions":null,"purposes":["comms"],"wikipedia_slug":null,"has_3d_model":false,"image_url":null,"decayed_at":null,"tle_current":{"epoch":"2026-05-25T05:25:15.538656Z","epoch_age_seconds":58700,"freshness":"FRESH","line1":"1 60426U 24144B   26145.22587429 -.00001629  00000+0 -42901-4 0  9999","line2":"2 60426  53.1596 221.8820 0000980  77.6946 282.4164 15.30204261101023","mean_motion":15.30204261,"eccentricity":9.8e-5,"inclination_deg":53.1596,"raan_deg":221.882,"arg_perigee_deg":77.6946,"mean_anomaly_deg":282.4164,"bstar":-4.2901e-5,"rev_number":10102,"period_min":94.105083661115,"perigee_km":474.5307196149,"apogee_km":475.87397412689,"semimajor_km":6853.3393468709,"source":"CELESTRAK","updated_at":"2026-05-25T13:38:19.272241Z"}}}